Weather in Belomestnoe

Russia / Belgorod Oblast     50°40′41″N   36°38′10″E
temp.,
°C
wind,
m/s
gust,
m/s
humid.,
%
clouds,
%
prec.,
mm/h
press.,
hPa
HPBL,
m
12 may, wed
wed1200:00+9e81674100 0.0 10201526
03:00+8e8158066 0.1 10201167
06:00+7ene6128677 0.0 1021725
09:00+10e81375100 0.0 10201207
12:00+9ese61085100 1.1 1019946
15:00+11e5980100 2.2 1017677
18:00+9ese3696100 5.6 1015423
21:00+8ese4995100 9.0 1015218
13 may, thu
thu1300:00+8ese5129494 0.6 1015423
03:00+7se4109856 0.8 1015291
06:00+7se499944 0.0 1016268
09:00+12sse5786100 0.1 1015771
12:00+13se468038 0.2 1015768
15:00+16sse466398 0.4 10141398
18:00+16sse367296 0.1 1014898
21:00+11e3390100 0.1 101533
14 may, fri
fri1400:00+11e3492100 0.0 101563
03:00+12e389393 0.0 1014148
06:00+12e399499 0.0 1014176
09:00+18se61078100 0.0 1013559
12:00+22se79642 0.0 10121305
15:00+23sse71166100 0.0 10121462
18:00+21sse41076100 0.0 1011594
21:00+17se41189100 2.3 1010222
15 may, sat
sat1500:00+16se229268 7.3 100935
03:00+15sw229453 7.9 100913
06:00+14ssw238999 0.1 101051
09:00+19sw467516 0.1 1010431
12:00+21sw5661100 0.0 10121239
15:00+22ssw585541 0.0 10122124
18:00+18wsw3676100 0.3 1012118
21:00+16wsw117598 0.3 101211
16 may, sun
sun1600:00+15nw118226 0.0 101311
03:00+13ne11860 0.0 101410
06:00+13nne228712 0.0 101441
09:00+18ne3372100 0.0 1014351
12:00+22ene446070 0.0 10131106
15:00+24ene465692 0.0 10121491
18:00+22ne487298 0.0 1011327
21:00+18ene4119095 0.3 1010218